Volver al catálogo

GEESAT 4-08

ActivoComunicacionesLEO
NORAD 65126·PAYLOAD·🇨🇳 China

Lanzado Aug 8, 2025 desde Yellow Sea Launch Area

Loading…

Próximos Pases (próximas 24 horas)

TLE

ActualizadoSource: Space-Track

Época: Sep 14, 2026, 13:59 UTC

1 65126U 25170H   26257.58304275  .00001073  00000-0  16033-3 0  9998
2 65126  49.9657  73.7049 0020412 325.4612  34.4998 14.82368127 60313

Sigue GEESAT 4-08 en tiempo real con AllMySat

Download on the App Store